• In Lithuania
  • List of Countries
  • For 7 days
  • Water Temperature
  • Satellite Maps
  • Weather Map
  • Weather Widgets
  • user-avatar
    Login

    Hourly Weather Punakha

    Today, 25 February, Sunday

    Time Temperature Precipitation Wind Pressure Humidity
    00:00 +8°C° 0 mm 1 mps 582 mmHg 85%
    01:00 +8°C° 0.1 mm 1 mps 582 mmHg 84%
    02:00 +8°C° 0.1 mm 1 mps 582 mmHg 84%
    03:00 +7°C° 0.1 mm 1 mps 582 mmHg 83%
    04:00 +7°C° 0 mm 1 mps 582 mmHg 82%
    05:00 +6°C° 0 mm 1 mps 581 mmHg 81%
    06:00 +6°C° 0 mm 1 mps 581 mmHg 79%
    07:00 +8°C° 0 mm 1 mps 583 mmHg 69%
    08:00 +11°C° 0 mm 1 mps 584 mmHg 59%
    09:00 +13°C° 0 mm 1 mps 585 mmHg 50%
    10:00 +14°C° 0 mm 1 mps 585 mmHg 48%
    11:00 +15°C° 0 mm 2 mps 585 mmHg 46%
    12:00 +16°C° 0 mm 2 mps 585 mmHg 44%
    13:00 +16°C° 0.1 mm 2 mps 585 mmHg 48%
    14:00 +15°C° 0.1 mm 2 mps 584 mmHg 52%
    15:00 +14°C° 0.1 mm 3 mps 583 mmHg 57%
    16:00 +14°C° 0.2 mm 2 mps 582 mmHg 67%
    17:00 +12°C° 0.2 mm 2 mps 581 mmHg 78%
    18:00 +10°C° 0.2 mm 1 mps 581 mmHg 89%
    19:00 +10°C° 0.2 mm 1 mps 581 mmHg 89%
    20:00 +9°C° 0.2 mm 1 mps 581 mmHg 89%
    21:00 +9°C° 0.2 mm 1 mps 581 mmHg 89%
    22:00 +9°C° 0.2 mm 1 mps 581 mmHg 89%
    23:00 +9°C° 0.2 mm 1 mps 581 mmHg 88%

    Tomorrow, 26 February, Monday

    Time Temperature Precipitation Wind Pressure Humidity
    00:00 +9°C° 0.2 mm 1 mps 581 mmHg 88%
    01:00 +8°C° 0.1 mm 1 mps 580 mmHg 88%
    02:00 +8°C° 0.1 mm 1 mps 580 mmHg 87%
    03:00 +7°C° 0.1 mm 1 mps 580 mmHg 86%
    04:00 +6°C° 0 mm 1 mps 579 mmHg 84%
    05:00 +6°C° 0 mm 1 mps 579 mmHg 82%
    06:00 +5°C° 0 mm 1 mps 579 mmHg 80%
    07:00 +7°C° 0 mm 1 mps 581 mmHg 71%
    08:00 +10°C° 0 mm 1 mps 582 mmHg 62%
    09:00 +12°C° 0 mm 1 mps 584 mmHg 52%
    10:00 +13°C° 0 mm 1 mps 584 mmHg 50%
    11:00 +14°C° 0 mm 2 mps 584 mmHg 48%
    12:00 +15°C° 0 mm 2 mps 584 mmHg 46%
    13:00 +15°C° 0.1 mm 2 mps 584 mmHg 48%
    14:00 +15°C° 0.1 mm 2 mps 583 mmHg 50%
    15:00 +15°C° 0.1 mm 2 mps 582 mmHg 53%
    16:00 +13°C° 0.1 mm 2 mps 582 mmHg 61%
    17:00 +11°C° 0.1 mm 1 mps 581 mmHg 70%
    18:00 +9°C° 0.1 mm 1 mps 580 mmHg 78%
    19:00 +9°C° 0 mm 1 mps 581 mmHg 73%
    20:00 +7°C° 0 mm 2 mps 581 mmHg 68%
    21:00 +7°C° 0 mm 2 mps 582 mmHg 63%
    22:00 +6°C° 0 mm 2 mps 582 mmHg 59%
    23:00 +5°C° 0 mm 3 mps 582 mmHg 55%

    Day after tomorrow, 27 February, Tuesday

    Time Temperature Precipitation Wind Pressure Humidity
    00:00 +5°C° 0 mm 3 mps 581 mmHg 51%
    01:00 +5°C° 0 mm 3 mps 581 mmHg 48%
    02:00 +4°C° 0 mm 3 mps 581 mmHg 45%
    03:00 +4°C° 0 mm 3 mps 581 mmHg 41%
    04:00 +4°C° 0 mm 3 mps 581 mmHg 40%
    05:00 +4°C° 0 mm 3 mps 581 mmHg 38%
    06:00 +4°C° 0 mm 3 mps 581 mmHg 36%
    07:00 +8°C° 0 mm 3 mps 583 mmHg 34%
    08:00 +13°C° 0 mm 2 mps 585 mmHg 32%
    09:00 +16°C° 0 mm 1 mps 587 mmHg 29%
    10:00 +18°C° 0 mm 1 mps 587 mmHg 28%
    11:00 +19°C° 0 mm 2 mps 587 mmHg 26%
    12:00 +20°C° 0 mm 2 mps 587 mmHg 24%
    13:00 +20°C° 0 mm 2 mps 586 mmHg 30%
    14:00 +19°C° 0 mm 2 mps 585 mmHg 35%
    15:00 +19°C° 0 mm 2 mps 585 mmHg 41%
    16:00 +16°C° 0 mm 2 mps 583 mmHg 52%
    17:00 +14°C° 0 mm 1 mps 582 mmHg 63%
    18:00 +11°C° 0 mm 1 mps 581 mmHg 74%
    19:00 +10°C° 0 mm 1 mps 582 mmHg 71%
    20:00 +10°C° 0 mm 1 mps 582 mmHg 69%
    21:00 +9°C° 0 mm 1 mps 582 mmHg 66%
    22:00 +9°C° 0 mm 1 mps 582 mmHg 64%
    23:00 +9°C° 0 mm 1 mps 582 mmHg 62%

    28 February, Wednesday

    Time Temperature Precipitation Wind Pressure Humidity
    00:00 +8°C° 0 mm 1 mps 582 mmHg 60%
    01:00 +7°C° 0 mm 2 mps 581 mmHg 57%
    02:00 +7°C° 0 mm 2 mps 581 mmHg 54%
    03:00 +6°C° 0 mm 2 mps 580 mmHg 51%
    04:00 +6°C° 0 mm 2 mps 580 mmHg 48%
    05:00 +6°C° 0 mm 2 mps 580 mmHg 46%
    06:00 +6°C° 0 mm 2 mps 580 mmHg 44%
    07:00 +10°C° 0 mm 1 mps 582 mmHg 42%
    08:00 +13°C° 0 mm 1 mps 584 mmHg 39%
    09:00 +14°C° 0 mm 0 mps 585 mmHg 37%
    10:00 +16°C° 0 mm 1 mps 585 mmHg 38%
    11:00 +18°C° 0 mm 1 mps 585 mmHg 38%
    12:00 +18°C° 0 mm 2 mps 585 mmHg 38%
    13:00 +18°C° 0 mm 2 mps 584 mmHg 44%
    14:00 +17°C° 0 mm 2 mps 583 mmHg 50%
    15:00 +17°C° 0 mm 2 mps 583 mmHg 55%
    16:00 +15°C° 0 mm 2 mps 582 mmHg 67%
    17:00 +13°C° 0 mm 1 mps 581 mmHg 78%
    18:00 +11°C° 0 mm 1 mps 580 mmHg 90%
    19:00 +10°C° 0 mm 1 mps 580 mmHg 89%
    20:00 +10°C° 0 mm 1 mps 581 mmHg 89%
    21:00 +10°C° 0 mm 1 mps 581 mmHg 88%
    22:00 +9°C° 0 mm 1 mps 581 mmHg 85%
    23:00 +9°C° 0 mm 1 mps 581 mmHg 82%

    1 March, Thursday

    Time Temperature Precipitation Wind Pressure Humidity
    00:00 +9°C° 0 mm 1 mps 581 mmHg 79%
    01:00 +8°C° 0 mm 1 mps 580 mmHg 77%
    02:00 +8°C° 0 mm 1 mps 580 mmHg 75%
    03:00 +8°C° 0 mm 1 mps 579 mmHg 73%
    04:00 +8°C° 0 mm 1 mps 579 mmHg 71%
    05:00 +7°C° 0 mm 1 mps 580 mmHg 68%
    06:00 +6°C° 0 mm 2 mps 580 mmHg 66%
    07:00 +10°C° 0 mm 1 mps 581 mmHg 60%
    08:00 +12°C° 0 mm 1 mps 583 mmHg 54%
    09:00 +15°C° 0 mm 1 mps 584 mmHg 48%
    10:00 +16°C° 0 mm 1 mps 584 mmHg 48%
    11:00 +17°C° 0 mm 2 mps 584 mmHg 48%
    12:00 +18°C° 0 mm 2 mps 584 mmHg 48%
    13:00 +17°C° 0.1 mm 2 mps 583 mmHg 53%
    14:00 +17°C° 0.1 mm 2 mps 582 mmHg 57%
    15:00 +17°C° 0.1 mm 3 mps 581 mmHg 62%
    16:00 +15°C° 0.1 mm 2 mps 581 mmHg 71%
    17:00 +14°C° 0.1 mm 2 mps 580 mmHg 80%
    18:00 +12°C° 0.1 mm 1 mps 580 mmHg 90%
    19:00 +12°C° 0.1 mm 1 mps 580 mmHg 90%
    20:00 +11°C° 0.1 mm 1 mps 580 mmHg 91%
    21:00 +11°C° 0.1 mm 1 mps 581 mmHg 92%
    22:00 +11°C° 0.1 mm 1 mps 581 mmHg 90%
    23:00 +10°C° 0.1 mm 1 mps 581 mmHg 88%

    2 March, Friday

    Time Temperature Precipitation Wind Pressure Humidity
    00:00 +10°C° 0.1 mm 1 mps 581 mmHg 87%
    01:00 +10°C° 0.2 mm 1 mps 580 mmHg 86%
    02:00 +10°C° 0.2 mm 1 mps 580 mmHg 86%
    03:00 +10°C° 0.2 mm 1 mps 580 mmHg 85%
    04:00 +10°C° 0.1 mm 1 mps 580 mmHg 85%
    05:00 +9°C° 0.1 mm 1 mps 580 mmHg 84%
    06:00 +8°C° 0.1 mm 0 mps 580 mmHg 83%
    07:00 +11°C° 0 mm 1 mps 581 mmHg 78%
    08:00 +12°C° 0 mm 1 mps 582 mmHg 72%
    09:00 +14°C° 0 mm 1 mps 583 mmHg 67%
    10:00 +15°C° 0.1 mm 1 mps 583 mmHg 65%
    11:00 +15°C° 0.1 mm 2 mps 583 mmHg 64%
    12:00 +16°C° 0.1 mm 2 mps 582 mmHg 62%
    13:00 +16°C° 0.3 mm 2 mps 582 mmHg 65%
    14:00 +15°C° 0.3 mm 2 mps 581 mmHg 68%
    15:00 +14°C° 0.3 mm 3 mps 580 mmHg 71%
    16:00 +14°C° 0.3 mm 2 mps 579 mmHg 78%
    17:00 +12°C° 0.3 mm 2 mps 579 mmHg 85%
    18:00 +11°C° 0.3 mm 1 mps 579 mmHg 91%
    19:00 +11°C° 0.4 mm 1 mps 579 mmHg 91%
    20:00 +10°C° 0.4 mm 1 mps 579 mmHg 91%
    21:00 +10°C° 0.4 mm 1 mps 580 mmHg 91%
    22:00 +10°C° 0.2 mm 1 mps 579 mmHg 90%
    23:00 +9°C° 0.2 mm 1 mps 579 mmHg 89%
    Show more